www.pogodaiklimat.ru

Погода и климат >> Архив погоды >> Россия >> Краснодарский край >> Горячий Ключ


ПОГОДА в Горячем Ключе

  • Прогноз погоды в Горячем Ключе
  • Монитор погоды в Горячем Ключе

АРХИВ ПОГОДЫ в Горячем Ключе

Время (UTC), дата Ветер
(напр.,м/с)
 
Видим.   Явления Облачность Т
(С)
Тd
(С)
f
(%)
Тe
(С)
Тes
(С)
Комфортность P
(гПа)
Po
(гПа)
Тmin
(С)
Tmax
(С)
R
(мм)
R24
(мм)
S
(см)
15 13.03 штиль 0 4000 м слаб. ливневой дождь со снегом 10/10 600 м
[Cb cap]
+0.7 0.0 95 -1 -1 1017.1 1009.3 +3.2 29
18 13.03 С 1 4000 м дымка {ливн. осадки} 10/10 600 м
[Sc]
+0.7 0.0 95 -1 -1 1018.1 1010.3
21 13.03 штиль 0 4000 м дымка 10/10 600 м
[Sc]
+0.7 +0.2 96 -1 -1 1018.6 1010.8
00 14.03 штиль 0 4000 м дымка 10/10 600 м
[Sc]
+0.6 +0.1 96 -1 -1 1018.9 1011.0
03 14.03 СВ 1 2000 м дымка 10/10 600 м
[Sc]
+0.6 +0.1 96 -2 -2 1019.0 1011.2 +0.6 0.1 12
06 14.03 штиль 0 2000 м дымка 10/10 600 м
[Sc]
+1.4 +0.8 96 0 0 1018.5 1010.7 +0.6
09 14.03 штиль 0 20 км 10/10 600 м
[Sc]
+3.4 +1.2 85 +2 +2 1016.5 1008.8
12 14.03 штиль 0 20 км 10/10 600 м
[Sc]
+4.4 +1.5 81 +3 +3 1015.3 1007.6
15 14.03 штиль 0 20 км 10/10 600 м
[Sc]
+4.5 +1.9 83 +4 +4 1013.6 1006.0 +5.7
18 14.03 штиль 0 20 км 9/8 600 м
[Sc Ac trans]
+3.0 +2.0 93 +2 +2 1012.6 1004.8
21 14.03 З 1 4000 м дымка 8/3 600 м
[Sc Ac trans Ci]
+1.8 +1.2 96 -0 -0 1010.6 1002.9
00 15.03 штиль 0 4000 м дымка {ливн. осадки} 10/8 600 м
[Cb calv Ac und]
+2.0 +1.5 96 +1 +1 1009.8 1002.1
03 15.03 С 1 4000 м дымка 10/9 600 м
[Cb calv Ac As]
+2.6 +1.7 94 +1 +1 1009.4 1001.7 +1.6 0.3 2
06 15.03 штиль 0 20 км 10/9 600 м
[Sc Ac und]
+4.1 +2.5 89 +3 +3 1009.6 1001.9
09 15.03 штиль 0 20 км 10/8 600 м
[Sc Ac und]
+7.5 +4.7 82 +7 +8 1009.1 1001.5
12 15.03 С 1 20 км 10/8 600 м
[Sc Ac und]
+9.8 +5.6 75 +9 +10 1008.2 1000.7
15 15.03 штиль 0 20 км в посл. час ливневой дождь 10/8 600 м
[Cb calv Ac und]
+8.7 +5.9 83 +8 +8 1008.0 1000.5 +9.8 0.0
18 15.03 штиль 0 10 км слаб. ливневой дождь 10/9 600 м
[Cb cap Ac und]
+6.8 +5.8 93 +6 +6 1008.5 1000.9
21 15.03 З 2 20 км {ливн. осадки} 9/9 600 м
[Cb calv]
+7.8 +4.6 80 +6 +6 1009.1 1001.5
00 16.03 штиль 0 20 км {ливн. осадки} 10/8 600 м
[Cb calv Ac und]
+7.1 +4.3 82 +6 +6 1009.3 1001.7
03 16.03 штиль 0 20 км 10/5 600 м
[Cb calv Ac und]
+6.1 +3.1 81 +5 +5 1009.8 1002.2 +6.0 0.5
06 16.03 штиль 0 10 км слаб. ливневой дождь 10/10 600 м
[Cb cap]
+6.5 +3.9 83 +6 +6 1010.4 1002.8
09 16.03 штиль 0 10 км слаб. ливневой дождь 10/10 600 м
[Cb cap]
+7.2 +3.9 80 +6 +6 1010.0 1002.4
12 16.03 штиль 0 10 км слаб. ливневой дождь 10/10 600 м
[Cb cap]
+7.2 +4.5 83 +6 +6 1009.9 1002.3
15 16.03 штиль 0 20 км {ливн. осадки} 10/5 600 м
[Cb calv Ac und]
+7.6 +5.6 87 +7 +7 1010.2 1002.6 +7.7 2
18 16.03 Ю 2 20 км {ливн. осадки} 9/4 600 м
[Cb calv Ac cuf]
+7.2 +2.3 71 +5 +5 1011.0 1003.4
21 16.03 Ю 2 20 км 10/3 600 м
[Cb calv Ac und]
+6.9 +2.5 74 +5 +5 1010.4 1002.8
00 17.03 Ю 2 20 км 10/1 600 м
[Cb calv Ac und]
+7.0 +3.0 76 +5 +5 1008.2 1000.6
03 17.03 штиль 0 20 км 10/0 2000 м
[Ac und]
+5.7 +3.3 85 +5 +5 1008.2 1000.6 +5.7
06 17.03 Ю 1 10 км слаб. ливневой дождь 10/10 600 м
[Cb cap]
+6.2 +2.9 79 +5 +5 1009.2 1001.6 +5.5
09 17.03 Ю 4 20 км {ливн. осадки} 8/5 600 м
[Cb calv Ac cuf Ci ing]
+9.6 +2.3 60 +7 +10 1009.2 1001.7
12 17.03 Ю 2
{11}
20 км {ливн. осадки} 9/8 600 м
[Cb calv Ac cuf Ci ing]
+8.3 +4.0 74 +7 +8 1010.6 1003.1
15 17.03 ЮЗ 2 20 км {ливн. осадки} 9/8 600 м
[Cb calv Ac cuf Ci ing]
+7.3 +2.2 70 +5 +5 1014.8 1007.2 +9.8 2
18 17.03 ЮЗ 2 20 км {ливн. осадки} 10/9 600 м
[Cb calv Ac und]
+7.5 +1.2 64 +6 +6 1017.9 1010.3
21 17.03 З 1 20 км 3/1 600 м
[Cb calv Ac cuf Ci ing]
+5.1 +1.8 79 +4 +4 1018.6 1010.9
00 18.03 З 1 20 км 6/4 600 м
[Cb calv Ac cuf Ci ing]
+5.1 +1.1 75 +4 +4 1019.8 1012.1
03 18.03 С 1 20 км 10/8 600 м
[Cb calv Ac und]
+4.2 +1.4 82 +3 +3 1020.9 1013.2 +3.8
06 18.03 З 2 20 км 8/3 600 м
[Cb calv Ac trans]
+6.4 +2.0 73 +4 +6 1023.0 1015.3
09 18.03 С 2 20 км 9/4 600 м
[Cb calv Ac cast]
+11.4 +0.7 48 +11 +13 1022.9 1015.3
12 18.03 З 1 20 км 9/6 600 м
[Cb calv Ac cuf]
+11.1 +1.6 52 +11 +13 1023.1 1015.5
15 18.03 штиль 0 20 км {ливн. осадки} 3/1 600 м
[Cb calv Ac trans]
+8.1 +4.0 75 +7 +8 1023.8 1016.2 +11.9 1
18 18.03 ЮЗ 1 20 км {ливн. осадки} ясно +3.8 +2.5 91 +2 +2 1024.6 1016.9
21 18.03 штиль 0 20 км ясно +2.2 +1.4 94 +1 +1 1025.1 1017.2
00 19.03 штиль 0 4000 м дымка ясно +0.5 -0.0 96 -1 -1 1024.7 1016.9
03 19.03 штиль 0 20 км ясно -0.2 -0.7 96 -2 -2 1024.8 1016.9 -0.2
06 19.03 штиль 0 20 км ясно +3.9 +2.8 93 +3 +9 1024.9 1017.1 -0.7
09 19.03 В 1 20 км 1/1 1000 м
[Cu hum]
+12.6 +1.3 46 +13 +25 опасность
простуды
1024.0 1016.5
12 19.03 С 1 20 км ясно +16.2 +1.0 36 +17 +25 1022.3 1014.9
15 19.03 С 1 20 км ясно +14.4 +1.7 42 +15 +15 1021.8 1014.3 +16.3
18 19.03 С 1 20 км ясно +9.1 +4.8 74 +9 +9 1022.5 1014.9
21 19.03 штиль 0 20 км ясно +6.1 +3.3 82 +5 +5 1022.6 1014.9
00 20.03 штиль 0 20 км 8/0
[Cs]
+3.3 +2.1 92 +2 +2 1022.6 1014.8
03 20.03 штиль 0 20 км 10/0 2000 м
[Ac und]
+3.8 +2.3 90 +3 +3 1022.3 1014.5 +2.6
06 20.03 штиль 0 20 км 10/0 2000 м
[Ac und]
+4.7 +2.8 87 +4 +6 1022.4 1014.7
09 20.03 В 1 20 км 10/0 2000 м
[Ac und]
+6.1 +2.7 79 +5 +9 1022.6 1014.9
12 20.03 СВ 1 20 км 1/0
[Ci fib]
+13.3 +4.3 54 +14 +22 1020.9 1013.4

 

Местоположение метеостанции Горячий Ключ (Краснодарский край, Россия): широта 44.63 долгота 39.10 высота над уровнем моря 62 м.

В архиве по умолчанию представлена погода в Горячем Ключе за последнюю неделю. Архивные данные за месяц целиком и за предыдущие месяцы, начиная с января 2011 года, Вы можете получить, выбрав интересующий диапазон дат из раскрывающегося списка и нажав кнопку "Ввод!".


*Определитесь, кто Вы:
робот инопланетянин человек

Внимание! Время в таблицах - всемирное. Для получения местного времени необходимо прибавить поправку, которая равна 3 ч.

Смотрите также архив погоды в соседних городах и на ближайших метеорологических станциях:

Погода в Горном (Краснодарский край, Россия) (41 км)
Погода в Джубге (Краснодарский край, Россия) (45 км)
Погода в Краснодаре (Краснодарский край, Россия) (47 км)
Погода в Туапсе (Краснодарский край, Россия) (59 км)
Погода в Белореченске (Краснодарский край, Россия) (65 км)
Погода в Магри (Краснодарский край, Россия) (68 км)
Погода в Майкопе (Адыгея, Россия) (78 км)
Погода в Геленджике (Краснодарский край, Россия) (81 км)
Погода в Шунтуке (Адыгея, Россия) (83 км)
Погода в Усть-Лабинске (Краснодарский край, Россия) (83 км)

Пояснения к столбцам:

Ветер - указаны скорость ветра в м/с - средняя за 10 мин, порывы в срок и между сроками (в фигурных скобках) и направление, откуда дует ветер: С - северный, СВ - северо-восточный, В - восточный, ЮВ - юго-восточный, Ю - южный, ЮЗ - юго-западный, З - западный, СЗ - северо-западный.
Видимость - горизонтальная дальность видимости в метрах или километрах. При видимости от 1 до 10 км при отсутствии осадков обычно наблюдается дымка, при ухудшении видимости до 1 км и менее - туман. В сухую погоду видимость может ухудшаться дымом, пылью или мглою.
Явления - указаны атмосферные явления, наблюдавшиеся в срок или в последний час перед сроком; фигурными скобками обозначены явления, наблюдавшиеся между сроками (за 1-3 часа до срока); квадратными скобками обозначены град или гололедные отложения с указанием их диаметра в мм.
Облачность - указаны через наклонную черту общая и нижняя облачность в баллах и высота нижней границы облаков в метрах; квадратными скобками обозначены формы облаков: Ci - перистые, Cs - перисто-слоистые, Cc - перисто-кучевые, Ac - высококучевые, As - высокослоистые, Sc - слоисто-кучевые, Ns - слоисто-дождевые, Cu - кучевые, Cb - кучево-дождевые. Подробнее классификацию облаков см. в Атласе облаков (PDF).
T - Температура воздуха - температура, измеренная на высоте 2 м над землей.
Td - Температура точки росы - температура, при понижении до которой содержащийся в воздухе водяной пар достигнет насыщения.
f - Относительная влажность воздуха - влажноcть воздуха, измеренная на высоте 2 м над землей.
Te - Эффективная температура - температура, которую ощущает одетый по сезону человек в тени. Характеристика душности погоды. При расчете учитывается влияние влажности воздуха и скорости ветра на теплоощущения человека.
Tes - Эффективная температура на солнце - температура, которую ощущает человек, с поправкой на солнечный нагрев. Характеристика знойности погоды. Зависит от высоты солнца над горизонтом, облачности и скорости ветра. Ночью, в пасмурную погоду, а также при ветре 12 м/с и более поправка равна нулю.
P - Атмосферное давление - приведенное к уровню моря атмосферное давление.
Po - Атмосферное давление - измеренное на уровне метеостанции атмосферное давление.
Tmin - Минимальная температура - минимум температуры воздуха на высоте 2 м над землей.
Tmax - Максимальная температура - максимум температуры воздуха на высоте 2 м над землей.
R - Количество осадков - Количество выпавших осадков за период времени, мм. При наведении курсора мыши на число - период времени, за который выпало указанное количество осадков.
R24 - Количество осадков - Количество выпавших осадков за 24 часа, мм.
S - Снежный покров - Высота снежного покрова, см. При наведении курсора мыши на число - состояние снежного покрова и степень покрытия местности в баллах.